EW1505 Weather Reports


time (UTC)temp
F
wind
direction
speed
knots
gust
knots
rain 1hr
in
rain 24hr
in
rain mn
in
humidity
%
barometer
mb
20260505073036 66 247 0.9 1.7 0.00 0.02 0.01 58 1010.0
20260505072032 66 267 0.0 1.7 0.00 0.02 0.01 57 1009.7
20260505071932 66 247 1.7 3.5 0.00 0.02 0.01 57 1009.6
20260505070948 67 247 2.6 3.5 0.00 0.02 0.01 56 1009.7
20260505065949 67 223 3.5 6.1 0.00 0.02 0.01 56 1009.6
20260505064946 68 251 3.5 5.2 0.00 0.02 0.01 54 1009.5
20260505064031 68 228 4.3 7.0 0.00 0.02 0.01 54 1009.3
20260505062032 68 241 6.1 8.7 0.00 0.02 0.01 52 1009.2
20260505061030 69 238 6.1 9.6 0.00 0.02 0.01 52 1009.2
20260505060931 69 231 7.0 13.9 0.00 0.02 0.01 53 1009.3
20260505055947 69 236 7.0 11.3 0.00 0.02 0.01 53 1009.0
20260505055031 69 240 6.1 8.7 0.00 0.02 0.01 52 1008.8
20260505053034 69 222 7.0 8.7 0.00 0.02 0.01 52 1008.5
20260505052931 69 223 4.3 7.8 0.00 0.02 0.01 52 1008.5
20260505050931 69 246 5.2 9.6 0.01 0.02 0.01 52 1008.5
20260505041746 69 250 3.5 9.6 0.00 0.01 0.00 54 1009.0
20260505040832 69 253 6.1 7.8 0.00 0.01 0.00 54 1009.2
20260505035926 70 253 3.5 7.0 0.00 0.01 0.01 54 1009.2
20260505034927 70 233 5.2 7.8 0.00 0.01 0.01 54 1009.2
20260505033927 70 233 4.3 7.0 0.00 0.01 0.01 54 1009.3
20260505032944 70 242 3.5 6.1 0.00 0.01 0.01 54 1009.3
20260505031928 70 247 3.5 5.2 0.00 0.01 0.01 53 1009.3
20260505030942 70 236 3.5 5.2 0.00 0.01 0.01 54 1009.3
20260505030027 70 232 2.6 5.2 0.00 0.01 0.01 54 1009.2
20260505025926 70 244 4.3 6.1 0.00 0.01 0.01 54 1009.2
20260505024927 70 232 4.3 7.8 0.00 0.01 0.01 54 1009.0
20260505024827 70 233 4.3 6.1 0.00 0.01 0.01 54 1009.0
20260505023827 70 180 1.7 3.5 0.00 0.01 0.01 55 1008.9
20260505023726 70 180 2.6 4.3 0.00 0.01 0.01 55 1008.9
20260505022743 70 180 4.3 6.1 0.00 0.01 0.01 54 1008.7
20260505021727 70 180 2.6 5.2 0.00 0.01 0.01 54 1008.6
20260505020826 70 250 2.6 4.3 0.00 0.01 0.01 54 1008.5
20260505014925 70 207 0.9 2.6 0.00 0.01 0.01 55 1008.2
20260505012029 70 247 0.9 2.6 0.00 0.01 0.01 53 1008.0
20260505011927 70 248 1.7 5.2 0.00 0.01 0.01 52 1008.0
20260505010927 71 247 0.9 3.5 0.00 0.01 0.01 52 1007.9
20260505005928 71 247 3.5 6.1 0.00 0.01 0.01 51 1007.8
20260505004926 72 249 2.6 4.3 0.00 0.01 0.01 50 1007.9
20260505004827 72 254 1.7 3.5 0.00 0.01 0.01 50 1007.8
20260505003846 72 223 2.6 4.3 0.00 0.01 0.01 49 1007.9
20260505003741 72 225 3.5 5.2 0.00 0.01 0.01 48 1007.9
20260505002726 73 245 2.6 5.2 0.00 0.01 0.01 47 1007.8
20260505002644 73 245 2.6 3.5 0.00 0.01 0.01 48 1007.8
20260505001628 73 247 1.7 3.5 0.00 0.01 0.01 47 1007.8
20260505001527 73 238 2.6 5.2 0.00 0.01 0.01 46 1007.9
20260505000526 74 232 2.6 4.3 0.00 0.01 0.01 46 1007.9
20260504235529 74 236 5.2 12.2 0.00 0.01 0.01 44 1007.9
20260504235445 74 248 4.3 10.4 0.00 0.01 0.01 44 1008.0
20260504234443 75 223 3.5 5.2 0.00 0.01 0.01 44 1008.1
20260504233527 74 235 4.3 7.8 0.00 0.01 0.01 44 1008.3
20260504233427 74 252 4.3 10.4 0.00 0.01 0.01 44 1008.2
20260504232441 75 237 4.3 7.8 0.00 0.01 0.01 43 1008.3
20260504231526 75 237 7.0 12.2 0.00 0.01 0.01 44 1008.4
20260504230543 75 254 5.2 8.7 0.00 0.01 0.01 46 1008.3
20260504225627 75 233 6.1 8.7 0.00 0.01 0.01 47 1008.3
20260504224628 75 252 5.2 7.8 0.00 0.01 0.01 49 1008.5
20260504223627 75 236 1.7 4.3 0.00 0.01 0.01 49 1008.5
20260504222627 75 255 0.9 2.6 0.00 0.01 0.01 48 1008.8
20260504222544 75 255 1.7 4.3 0.00 0.01 0.01 48 1008.8
20260504221527 75 247 1.7 2.6 0.00 0.01 0.01 47 1008.8
20260504221445 75 247 1.7 2.6 0.00 0.01 0.01 47 1008.9
20260504220525 74 234 2.6 5.2 0.00 0.01 0.01 47 1008.9
20260504214526 74 247 1.7 2.6 0.00 0.01 0.01 46 1008.8
20260504213526 74 250 3.5 5.2 0.00 0.01 0.01 45 1009.3
20260504210626 75 251 2.6 3.5 0.00 0.02 0.01 46 1009.7
20260504205626 75 249 3.5 5.2 0.00 0.02 0.01 46 1009.9
20260504204626 74 240 5.2 10.4 0.00 0.02 0.01 46 1009.8
20260504203642 74 252 4.3 9.6 0.00 0.02 0.01 48 1010.0
20260504202542 74 247 7.0 10.4 0.00 0.02 0.01 50 1010.2
20260504201526 73 256 5.2 7.8 0.00 0.02 0.01 51 1010.5
20260504201427 73 246 6.1 7.8 0.00 0.02 0.01 51 1010.3
20260504200426 73 250 4.3 9.6 0.00 0.02 0.01 51 1010.3
20260504195525 73 241 6.1 10.4 0.00 0.02 0.01 52 1010.5
20260504190625 67 249 0.9 2.6 0.00 0.02 0.01 64 1011.7
20260504190543 67 247 0.9 1.7 0.00 0.02 0.01 64 1011.8
20260504185526 67 239 4.3 6.1 0.00 0.02 0.01 64 1011.8
20260504184527 68 247 0.9 1.7 0.00 0.02 0.01 59 1011.9
20260504183526 68 245 4.3 7.8 0.00 0.02 0.01 58 1011.9
20260504182527 68 237 4.3 10.4 0.00 0.02 0.01 57 1011.9
20260504182427 68 239 6.1 9.6 0.00 0.02 0.01 56 1011.8
20260504181426 69 249 7.0 9.6 0.00 0.02 0.01 56 1011.6
20260504180525 69 246 7.0 10.4 0.00 0.02 0.01 55 1011.3
20260504180426 70 240 7.8 12.2 0.00 0.02 0.01 55 1011.3
20260504175525 71 243 6.1 11.3 0.00 0.02 0.01 55 1011.1
20260504174427 70 241 4.3 7.8 0.00 0.02 0.01 56 1010.9
20260504173525 70 239 7.8 12.2 0.00 0.02 0.01 57 1010.8
20260504173443 70 261 5.2 8.7 0.00 0.02 0.01 57 1010.6
20260504172426 70 250 5.2 7.8 0.00 0.02 0.01 58 1010.9
20260504172326 70 246 4.3 7.0 0.00 0.02 0.01 58 1010.9
20260504170427 68 251 3.5 4.3 0.00 0.02 0.01 59 1011.1
20260504150741 64 180 4.3 7.0 0.00 0.02 0.01 60 1012.0
20260504130125 57 222 5.2 8.7 0.00 0.02 0.01 67 1012.7
20260504100525 54 225 0.0 0.0 0.00 0.01 0.00 64 1013.0
20260504100442 54 225 0.0 1.7 0.00 0.01 0.00 63 1013.0
20260504081724 55 225 3.5 6.1 0.00 0.01 0.00 58 1013.6
20260504080725 55 225 1.7 2.6 0.00 0.01 0.00 58 1013.8